Time,TemperatureF,DewpointF,PressureIn,WindDirection,WindDirectionDegrees,WindSpeedMPH,WindSpeedGustMPH,Humidity,HourlyPrecipIn,Conditions,Clouds,dailyrainin,SoftwareType,DateUTC
2013-09-06 00:01:00,48.6,46.7,30.12,North,5,0.0,0.0,93,0.00,,CLR,0.02,VWS V13.01,2013-09-06 04:01:00,
2013-09-06 00:04:00,48.7,46.8,30.12,North,5,0.0,0.0,93,0.00,,CLR,0.00,VWS V13.01,2013-09-06 04:04:00,
2013-09-06 00:08:00,48.7,46.8,30.12,North,5,0.0,0.0,93,0.00,,CLR,0.00,VWS V13.01,2013-09-06 04:08:00,
2013-09-06 00:10:00,48.7,46.8,30.12,North,5,0.0,0.0,93,0.00,,CLR,0.00,VWS V13.01,2013-09-06 04:10:00,
2013-09-06 00:15:00,48.7,46.8,30.12,North,5,0.0,0.0,93,0.00,,CLR,0.00,VWS V13.01,2013-09-06 04:15:00,
2013-09-06 00:20:00,48.6,46.7,30.12,North,5,0.0,0.0,93,0.00,,CLR,0.00,VWS V13.01,2013-09-06 04:20:00,
2013-09-06 00:25:00,48.6,46.4,30.12,North,5,0.0,0.0,92,0.00,,CLR,0.00,VWS V13.01,2013-09-06 04:25:00,
2013-09-06 00:30:00,48.6,46.4,30.12,North,5,0.0,0.0,92,0.00,,CLR,0.00,VWS V13.01,2013-09-06 04:30:00,
2013-09-06 00:35:00,48.6,46.1,30.12,North,5,0.0,1.0,91,0.00,,CLR,0.00,VWS V13.01,2013-09-06 04:35:00,
2013-09-06 00:40:00,48.6,46.1,30.12,North,5,0.0,1.0,91,0.00,,CLR,0.00,VWS V13.01,2013-09-06 04:40:00,
2013-09-06 00:45:00,48.7,46.8,30.12,NNW,339,1.0,1.0,93,0.00,,CLR,0.00,VWS V13.01,2013-09-06 04:45:00,
2013-09-06 00:50:00,48.7,46.8,30.13,NNW,339,0.0,1.0,93,0.00,,CLR,0.00,VWS V13.01,2013-09-06 04:50:00,
2013-09-06 00:55:00,48.6,46.4,30.13,NNW,339,0.0,1.0,92,0.00,,CLR,0.00,VWS V13.01,2013-09-06 04:55:00,
2013-09-06 01:01:00,48.3,46.1,30.13,NNW,339,0.0,1.0,92,0.00,,CLR,0.00,VWS V13.01,2013-09-06 05:01:00,
2013-09-06 01:06:00,48.0,45.8,30.13,NNW,339,0.0,0.0,92,0.00,,CLR,0.00,VWS V13.01,2013-09-06 05:06:00,
2013-09-06 01:11:00,47.8,45.6,30.13,NNW,339,0.0,0.0,92,0.00,,CLR,0.00,VWS V13.01,2013-09-06 05:11:00,
2013-09-06 01:16:00,47.7,45.5,30.13,NNW,339,0.0,0.0,92,0.00,,CLR,0.00,VWS V13.01,2013-09-06 05:16:00,
2013-09-06 01:21:00,47.5,45.6,30.13,NNW,339,0.0,0.0,93,0.00,,CLR,0.00,VWS V13.01,2013-09-06 05:21:00,
2013-09-06 01:26:00,47.5,45.6,30.13,NNW,339,0.0,0.0,93,0.00,,CLR,0.00,VWS V13.01,2013-09-06 05:26:00,
2013-09-06 01:31:00,47.6,46.0,30.13,NNW,339,0.0,0.0,94,0.00,,CLR,0.00,VWS V13.01,2013-09-06 05:31:00,
2013-09-06 01:36:00,47.5,45.6,30.13,NNW,339,0.0,0.0,93,0.00,,CLR,0.00,VWS V13.01,2013-09-06 05:36:00,
2013-09-06 01:41:00,47.4,45.5,30.13,NNW,339,0.0,0.0,93,0.00,,CLR,0.00,VWS V13.01,2013-09-06 05:41:00,
2013-09-06 01:47:00,47.4,45.8,30.13,NNW,339,0.0,1.0,94,0.00,,CLR,0.00,VWS V13.01,2013-09-06 05:47:00,
2013-09-06 01:52:00,47.4,45.5,30.13,NNW,339,0.0,1.0,93,0.00,,CLR,0.00,VWS V13.01,2013-09-06 05:52:00,
2013-09-06 01:57:00,47.2,45.3,30.13,NNW,339,0.0,1.0,93,0.00,,CLR,0.00,VWS V13.01,2013-09-06 05:57:00,
2013-09-06 02:02:00,47.1,45.2,30.13,NNW,339,0.0,0.0,93,0.00,,CLR,0.00,VWS V13.01,2013-09-06 06:02:00,
2013-09-06 02:07:00,46.9,45.0,30.13,NNW,339,0.0,0.0,93,0.00,,CLR,0.00,VWS V13.01,2013-09-06 06:07:00,
2013-09-06 02:12:00,46.6,44.7,30.13,NNW,339,0.0,0.0,93,0.00,,CLR,0.00,VWS V13.01,2013-09-06 06:12:00,
2013-09-06 02:17:00,46.3,44.4,30.14,NNW,339,0.0,0.0,93,0.00,,CLR,0.00,VWS V13.01,2013-09-06 06:17:00,
2013-09-06 02:22:00,46.0,44.1,30.14,NNW,339,0.0,0.0,93,0.00,,CLR,0.00,VWS V13.01,2013-09-06 06:22:00,
2013-09-06 02:27:00,45.8,44.2,30.14,NNW,339,0.0,0.0,94,0.00,,CLR,0.00,VWS V13.01,2013-09-06 06:27:00,
2013-09-06 02:33:00,45.7,44.1,30.14,NNW,339,0.0,0.0,94,0.00,,CLR,0.00,VWS V13.01,2013-09-06 06:33:00,
2013-09-06 02:38:00,45.6,44.0,30.14,NNW,339,0.0,0.0,94,0.00,,CLR,0.00,VWS V13.01,2013-09-06 06:38:00,
2013-09-06 02:43:00,45.4,43.8,30.14,NNW,339,0.0,0.0,94,0.00,,CLR,0.00,VWS V13.01,2013-09-06 06:43:00,
2013-09-06 02:48:00,45.4,43.8,30.14,NNW,339,0.0,0.0,94,0.00,,CLR,0.00,VWS V13.01,2013-09-06 06:48:00,
2013-09-06 02:53:00,45.3,43.7,30.14,NNW,339,0.0,0.0,94,0.00,,CLR,0.00,VWS V13.01,2013-09-06 06:53:00,
2013-09-06 02:58:00,45.3,44.0,30.14,NNW,339,0.0,0.0,95,0.00,,CLR,0.00,VWS V13.01,2013-09-06 06:58:00,
2013-09-06 03:03:00,45.1,43.5,30.14,NNW,339,0.0,0.0,94,0.00,,CLR,0.00,VWS V13.01,2013-09-06 07:03:00,
2013-09-06 03:08:00,45.0,43.4,30.14,NNW,339,0.0,0.0,94,0.00,,CLR,0.00,VWS V13.01,2013-09-06 07:08:00,
2013-09-06 03:13:00,44.8,43.2,30.15,NNW,339,0.0,0.0,94,0.00,,CLR,0.00,VWS V13.01,2013-09-06 07:13:00,
2013-09-06 03:19:00,44.7,43.4,30.15,NNW,339,0.0,0.0,95,0.00,,CLR,0.00,VWS V13.01,2013-09-06 07:19:00,
2013-09-06 03:24:00,44.6,43.3,30.15,NNW,339,0.0,0.0,95,0.00,,CLR,0.00,VWS V13.01,2013-09-06 07:24:00,
2013-09-06 03:29:00,44.6,43.3,30.15,NNW,339,0.0,0.0,95,0.00,,CLR,0.00,VWS V13.01,2013-09-06 07:29:00,
2013-09-06 03:34:00,44.5,43.2,30.15,NNW,339,0.0,0.0,95,0.00,,CLR,0.00,VWS V13.01,2013-09-06 07:34:00,
2013-09-06 03:39:00,44.4,43.1,30.15,NNW,339,0.0,1.0,95,0.00,,CLR,0.00,VWS V13.01,2013-09-06 07:39:00,
2013-09-06 03:44:00,44.5,43.4,30.15,NNW,339,0.0,1.0,96,0.00,,CLR,0.00,VWS V13.01,2013-09-06 07:44:00,
2013-09-06 03:49:00,44.6,43.5,30.15,NNW,339,0.0,1.0,96,0.00,,CLR,0.00,VWS V13.01,2013-09-06 07:49:00,
2013-09-06 03:54:00,44.6,43.5,30.15,NNW,339,0.0,1.0,96,0.00,,CLR,0.00,VWS V13.01,2013-09-06 07:54:00,
2013-09-06 03:59:00,44.6,43.3,30.16,NNW,339,0.0,1.0,95,0.00,,CLR,0.00,VWS V13.01,2013-09-06 07:59:00,
2013-09-06 04:04:00,44.5,43.2,30.16,NNW,339,0.0,0.0,95,0.00,,CLR,0.00,VWS V13.01,2013-09-06 08:04:00,
2013-09-06 04:09:00,44.4,43.1,30.16,NNW,339,0.0,0.0,95,0.00,,CLR,0.00,VWS V13.01,2013-09-06 08:09:00,
2013-09-06 04:15:00,44.3,43.0,30.16,NNW,339,0.0,0.0,95,0.00,,CLR,0.00,VWS V13.01,2013-09-06 08:15:00,
2013-09-06 04:20:00,44.1,42.8,30.16,NNW,339,0.0,0.0,95,0.00,,CLR,0.00,VWS V13.01,2013-09-06 08:20:00,
2013-09-06 04:25:00,43.9,42.6,30.16,NNW,339,0.0,0.0,95,0.00,,CLR,0.00,VWS V13.01,2013-09-06 08:25:00,
2013-09-06 04:30:00,43.8,42.5,30.16,NNW,339,0.0,0.0,95,0.00,,CLR,0.00,VWS V13.01,2013-09-06 08:30:00,
2013-09-06 04:35:00,43.7,42.4,30.17,NNW,339,0.0,0.0,95,0.00,,CLR,0.00,VWS V13.01,2013-09-06 08:35:00,
2013-09-06 04:40:00,43.6,42.3,30.17,NNW,339,0.0,0.0,95,0.00,,CLR,0.00,VWS V13.01,2013-09-06 08:40:00,
2013-09-06 04:45:00,43.5,42.4,30.17,NNW,339,0.0,0.0,96,0.00,,CLR,0.00,VWS V13.01,2013-09-06 08:45:00,
2013-09-06 04:50:00,43.4,42.3,30.17,NNW,339,0.0,0.0,96,0.00,,CLR,0.00,VWS V13.01,2013-09-06 08:50:00,
2013-09-06 04:55:00,43.4,42.3,30.17,NNW,339,0.0,0.0,96,0.00,,CLR,0.00,VWS V13.01,2013-09-06 08:55:00,
2013-09-06 05:00:00,43.5,42.4,30.17,NNW,339,0.0,0.0,96,0.00,,CLR,0.00,VWS V13.01,2013-09-06 09:00:00,
2013-09-06 05:05:00,43.5,42.4,30.17,NNW,339,0.0,0.0,96,0.00,,CLR,0.00,VWS V13.01,2013-09-06 09:05:00,
2013-09-06 05:11:00,43.3,42.2,30.17,NNW,339,0.0,0.0,96,0.00,,CLR,0.00,VWS V13.01,2013-09-06 09:11:00,
2013-09-06 05:16:00,43.1,42.0,30.17,NNW,339,0.0,0.0,96,0.00,,CLR,0.00,VWS V13.01,2013-09-06 09:16:00,
2013-09-06 05:21:00,42.9,41.8,30.17,NNW,339,0.0,0.0,96,0.00,,CLR,0.00,VWS V13.01,2013-09-06 09:21:00,
2013-09-06 05:26:00,42.8,41.7,30.17,NNW,339,0.0,0.0,96,0.00,,CLR,0.00,VWS V13.01,2013-09-06 09:26:00,
2013-09-06 05:31:00,42.7,41.6,30.17,NNW,339,0.0,0.0,96,0.00,,CLR,0.00,VWS V13.01,2013-09-06 09:31:00,
2013-09-06 05:36:00,42.7,41.6,30.17,NNW,339,0.0,0.0,96,0.00,,CLR,0.00,VWS V13.01,2013-09-06 09:36:00,
2013-09-06 05:41:00,42.7,41.6,30.17,NNW,339,0.0,0.0,96,0.00,,CLR,0.00,VWS V13.01,2013-09-06 09:41:00,
2013-09-06 05:46:00,42.4,41.3,30.17,NNW,339,0.0,0.0,96,0.00,,CLR,0.00,VWS V13.01,2013-09-06 09:46:00,
2013-09-06 05:51:00,42.2,41.1,30.17,NNW,339,0.0,0.0,96,0.00,,CLR,0.00,VWS V13.01,2013-09-06 09:51:00,
2013-09-06 05:56:00,42.0,40.9,30.18,NNW,339,0.0,0.0,96,0.00,,CLR,0.00,VWS V13.01,2013-09-06 09:56:00,
2013-09-06 06:02:00,42.0,40.9,30.18,NNW,339,0.0,0.0,96,0.00,,CLR,0.00,VWS V13.01,2013-09-06 10:02:00,
2013-09-06 06:07:00,41.9,40.8,30.18,NNW,339,0.0,0.0,96,0.00,,CLR,0.00,VWS V13.01,2013-09-06 10:07:00,
2013-09-06 06:12:00,41.9,41.1,30.18,NNW,339,0.0,0.0,97,0.00,,CLR,0.00,VWS V13.01,2013-09-06 10:12:00,
2013-09-06 06:17:00,41.9,41.1,30.18,NNW,339,0.0,0.0,97,0.00,,CLR,0.00,VWS V13.01,2013-09-06 10:17:00,
2013-09-06 06:22:00,41.8,41.0,30.19,NNW,339,0.0,0.0,97,0.00,,CLR,0.00,VWS V13.01,2013-09-06 10:22:00,
2013-09-06 06:27:00,41.8,41.0,30.19,NNW,339,0.0,0.0,97,0.00,,CLR,0.00,VWS V13.01,2013-09-06 10:27:00,
2013-09-06 06:32:00,41.9,41.1,30.19,NNW,339,0.0,0.0,97,0.00,,CLR,0.00,VWS V13.01,2013-09-06 10:32:00,
2013-09-06 06:37:00,41.9,41.1,30.19,NNW,339,0.0,0.0,97,0.00,,CLR,0.00,VWS V13.01,2013-09-06 10:37:00,
2013-09-06 06:42:00,41.9,41.1,30.19,NNW,339,0.0,0.0,97,0.00,,CLR,0.00,VWS V13.01,2013-09-06 10:42:00,
2013-09-06 06:47:00,41.9,41.1,30.20,NNW,339,0.0,0.0,97,0.00,,CLR,0.00,VWS V13.01,2013-09-06 10:47:00,
2013-09-06 06:53:00,41.9,41.1,30.20,NNW,339,0.0,0.0,97,0.00,,CLR,0.00,VWS V13.01,2013-09-06 10:53:00,
2013-09-06 06:58:00,41.9,41.1,30.20,NNW,339,0.0,0.0,97,0.00,,CLR,0.00,VWS V13.01,2013-09-06 10:58:00,
2013-09-06 07:03:00,41.9,41.1,30.20,NNW,339,0.0,0.0,97,0.00,,CLR,0.00,VWS V13.01,2013-09-06 11:03:00,
2013-09-06 07:08:00,42.1,41.6,30.20,NNW,339,0.0,0.0,98,0.00,,CLR,0.00,VWS V13.01,2013-09-06 11:08:00,
2013-09-06 07:13:00,42.2,41.7,30.20,NNW,339,0.0,0.0,98,0.00,,CLR,0.00,VWS V13.01,2013-09-06 11:13:00,
2013-09-06 07:18:00,42.3,41.8,30.20,NNW,339,0.0,0.0,98,0.00,,CLR,0.00,VWS V13.01,2013-09-06 11:18:00,
2013-09-06 07:23:00,42.4,41.9,30.20,NNW,339,0.0,0.0,98,0.00,,CLR,0.00,VWS V13.01,2013-09-06 11:23:00,
2013-09-06 07:28:00,42.6,42.1,30.20,NNW,339,0.0,0.0,98,0.00,,CLR,0.00,VWS V13.01,2013-09-06 11:28:00,
2013-09-06 07:33:00,42.8,42.3,30.20,NNW,339,0.0,0.0,98,0.00,,CLR,0.00,VWS V13.01,2013-09-06 11:33:00,
2013-09-06 07:39:00,42.9,42.4,30.20,NNW,339,0.0,0.0,98,0.00,,CLR,0.00,VWS V13.01,2013-09-06 11:39:00,
2013-09-06 07:44:00,43.1,42.8,30.20,NNW,339,0.0,0.0,99,0.00,,CLR,0.00,VWS V13.01,2013-09-06 11:44:00,
2013-09-06 07:49:00,43.4,43.1,30.20,NNW,339,0.0,0.0,99,0.00,,CLR,0.00,VWS V13.01,2013-09-06 11:49:00,
2013-09-06 07:54:00,43.7,43.4,30.20,NNW,339,0.0,0.0,99,0.00,,CLR,0.00,VWS V13.01,2013-09-06 11:54:00,
2013-09-06 07:59:00,43.9,43.6,30.20,NNW,339,0.0,0.0,99,0.00,,CLR,0.00,VWS V13.01,2013-09-06 11:59:00,
2013-09-06 08:04:00,44.2,43.9,30.20,NNW,339,0.0,0.0,99,0.00,,CLR,0.00,VWS V13.01,2013-09-06 12:04:00,
2013-09-06 08:09:00,44.4,44.1,30.20,NNW,339,0.0,0.0,99,0.00,,CLR,0.00,VWS V13.01,2013-09-06 12:09:00,
2013-09-06 08:14:00,44.6,44.3,30.20,NNW,339,0.0,0.0,99,0.00,,CLR,0.00,VWS V13.01,2013-09-06 12:14:00,
2013-09-06 08:19:00,44.9,44.6,30.20,NNW,339,0.0,0.0,99,0.00,,CLR,0.00,VWS V13.01,2013-09-06 12:19:00,
2013-09-06 08:24:00,45.2,44.9,30.20,NNW,339,0.0,0.0,99,0.00,,CLR,0.00,VWS V13.01,2013-09-06 12:24:00,
2013-09-06 08:30:00,45.5,45.2,30.20,NNW,339,0.0,0.0,99,0.00,,CLR,0.00,VWS V13.01,2013-09-06 12:30:00,
2013-09-06 08:35:00,45.8,45.5,30.20,NNW,339,0.0,0.0,99,0.00,,CLR,0.00,VWS V13.01,2013-09-06 12:35:00,
2013-09-06 08:40:00,46.1,45.8,30.20,NNW,339,0.0,0.0,99,0.00,,CLR,0.00,VWS V13.01,2013-09-06 12:40:00,
2013-09-06 08:45:00,46.5,46.2,30.21,NNW,339,1.0,2.0,99,0.00,,CLR,0.00,VWS V13.01,2013-09-06 12:45:00,
2013-09-06 08:50:00,47.2,46.9,30.21,NNW,339,0.0,2.0,99,0.00,,CLR,0.00,VWS V13.01,2013-09-06 12:50:00,
2013-09-06 08:55:00,48.5,48.2,30.21,NNW,339,0.0,2.0,99,0.00,,CLR,0.00,VWS V13.01,2013-09-06 12:55:00,
2013-09-06 09:00:00,49.9,49.1,30.21,NNW,336,0.0,2.0,97,0.00,,CLR,0.00,VWS V13.01,2013-09-06 13:00:00,
2013-09-06 09:05:00,51.4,49.5,30.21,NNW,328,0.0,1.0,93,0.00,,CLR,0.00,VWS V13.01,2013-09-06 13:05:00,
2013-09-06 09:10:00,53.1,49.3,30.22,WSW,238,0.0,2.0,87,0.00,,CLR,0.00,VWS V13.01,2013-09-06 13:10:00,
2013-09-06 09:15:00,54.8,51.0,30.22,WSW,258,0.0,2.0,87,0.00,,CLR,0.00,VWS V13.01,2013-09-06 13:15:00,
2013-09-06 09:21:00,56.4,50.0,30.22,NW,312,0.0,4.0,79,0.00,,CLR,0.00,VWS V13.01,2013-09-06 13:21:00,
2013-09-06 09:26:00,57.7,49.1,30.22,NW,312,0.0,4.0,73,0.00,,CLR,0.00,VWS V13.01,2013-09-06 13:26:00,
2013-09-06 09:31:00,58.7,49.7,30.22,NW,312,0.0,4.0,72,0.00,,CLR,0.00,VWS V13.01,2013-09-06 13:31:00,
2013-09-06 09:36:00,59.6,50.6,30.22,NNW,336,0.0,3.0,72,0.00,,CLR,0.00,VWS V13.01,2013-09-06 13:36:00,
2013-09-06 09:41:00,60.3,48.1,30.22,NW,317,0.0,5.0,64,0.00,,CLR,0.00,VWS V13.01,2013-09-06 13:41:00,
2013-09-06 09:46:00,60.4,49.8,30.22,NW,317,0.0,5.0,68,0.00,,CLR,0.00,VWS V13.01,2013-09-06 13:46:00,
2013-09-06 09:51:00,60.3,48.5,30.22,NW,317,0.0,5.0,65,0.00,,CLR,0.00,VWS V13.01,2013-09-06 13:51:00,
2013-09-06 09:56:00,59.8,46.8,30.22,NW,317,0.0,5.0,62,0.00,,CLR,0.00,VWS V13.01,2013-09-06 13:56:00,
2013-09-06 10:01:00,60.0,48.6,30.22,NE,36,3.0,3.0,66,0.00,,CLR,0.00,VWS V13.01,2013-09-06 14:01:00,
2013-09-06 10:06:00,60.3,47.7,30.22,North,349,2.0,3.0,63,0.00,,CLR,0.00,VWS V13.01,2013-09-06 14:06:00,
2013-09-06 10:12:00,60.5,48.3,30.21,NNW,333,0.0,3.0,64,0.00,,CLR,0.00,VWS V13.01,2013-09-06 14:12:00,
2013-09-06 10:17:00,60.6,43.4,30.21,NNW,338,0.0,6.0,53,0.00,,CLR,0.00,VWS V13.01,2013-09-06 14:17:00,
2013-09-06 10:22:00,60.7,43.5,30.21,North,355,0.0,6.0,53,0.00,,CLR,0.00,VWS V13.01,2013-09-06 14:22:00,
2013-09-06 10:27:00,60.7,44.9,30.21,North,355,0.0,6.0,56,0.00,,CLR,0.00,VWS V13.01,2013-09-06 14:27:00,
2013-09-06 10:32:00,60.6,44.8,30.21,NW,315,0.0,0.0,56,0.00,,CLR,0.00,VWS V13.01,2013-09-06 14:32:00,
2013-09-06 10:37:00,60.6,46.7,30.21,NW,315,0.0,1.0,60,0.00,,CLR,0.00,VWS V13.01,2013-09-06 14:37:00,
2013-09-06 10:42:00,60.8,46.4,30.21,NW,315,0.0,2.0,59,0.00,,CLR,0.00,VWS V13.01,2013-09-06 14:42:00,
2013-09-06 10:47:00,60.9,45.1,30.21,North,355,1.0,2.0,56,0.00,,CLR,0.00,VWS V13.01,2013-09-06 14:47:00,
2013-09-06 10:52:00,61.1,43.4,30.21,South,169,0.0,5.0,52,0.00,,CLR,0.00,VWS V13.01,2013-09-06 14:52:00,
2013-09-06 10:58:00,60.9,45.1,30.21,South,169,0.0,5.0,56,0.00,,CLR,0.00,VWS V13.01,2013-09-06 14:58:00,
2013-09-06 11:03:00,61.1,43.9,30.21,NW,316,0.0,5.0,53,0.00,,CLR,0.00,VWS V13.01,2013-09-06 15:03:00,
2013-09-06 11:08:00,61.4,43.6,30.21,NNW,333,0.0,5.0,52,0.00,,CLR,0.00,VWS V13.01,2013-09-06 15:08:00,
2013-09-06 11:13:00,61.7,43.4,30.21,NNW,335,0.0,5.0,51,0.00,,CLR,0.00,VWS V13.01,2013-09-06 15:13:00,
2013-09-06 11:18:00,61.9,43.1,30.21,SW,226,0.0,5.0,50,0.00,,CLR,0.00,VWS V13.01,2013-09-06 15:18:00,
2013-09-06 11:23:00,61.9,43.6,30.21,NNW,344,1.0,5.0,51,0.00,,CLR,0.00,VWS V13.01,2013-09-06 15:23:00,
2013-09-06 11:28:00,62.0,42.6,30.20,NNW,339,0.0,5.0,49,0.00,,CLR,0.00,VWS V13.01,2013-09-06 15:28:00,
2013-09-06 11:33:00,62.1,44.8,30.21,WNW,298,0.0,3.0,53,0.00,,CLR,0.00,VWS V13.01,2013-09-06 15:33:00,
2013-09-06 11:38:00,62.3,41.8,30.20,NW,321,0.0,4.0,47,0.00,,CLR,0.00,VWS V13.01,2013-09-06 15:38:00,
2013-09-06 11:43:00,62.6,42.1,30.20,NW,321,0.0,4.0,47,0.00,,CLR,0.00,VWS V13.01,2013-09-06 15:43:00,
2013-09-06 11:49:00,63.0,42.5,30.20,North,360,0.0,4.0,47,0.00,,CLR,0.00,VWS V13.01,2013-09-06 15:49:00,
2013-09-06 11:54:00,63.2,44.8,30.20,North,360,0.0,4.0,51,0.00,,CLR,0.00,VWS V13.01,2013-09-06 15:54:00,
2013-09-06 11:59:00,63.4,45.5,30.20,North,350,0.0,4.0,52,0.00,,CLR,0.00,VWS V13.01,2013-09-06 15:59:00,
2013-09-06 12:04:00,63.8,45.9,30.19,ENE,68,0.0,3.0,52,0.00,,CLR,0.00,VWS V13.01,2013-09-06 16:04:00,
2013-09-06 12:09:00,64.2,44.1,30.19,North,5,0.0,3.0,48,0.00,,CLR,0.00,VWS V13.01,2013-09-06 16:09:00,
2013-09-06 12:14:00,64.4,42.6,30.19,NNW,344,0.0,3.0,45,0.00,,CLR,0.00,VWS V13.01,2013-09-06 16:14:00,
2013-09-06 12:19:00,64.5,44.9,30.19,NNW,343,0.0,3.0,49,0.00,,CLR,0.00,VWS V13.01,2013-09-06 16:19:00,
2013-09-06 12:24:00,64.5,42.7,30.19,WNW,284,3.0,4.0,45,0.00,,CLR,0.00,VWS V13.01,2013-09-06 16:24:00,
2013-09-06 12:29:00,64.6,43.9,30.19,NNW,344,1.0,5.0,47,0.00,,CLR,0.00,VWS V13.01,2013-09-06 16:29:00,
2013-09-06 12:34:00,64.8,43.0,30.18,North,5,0.0,4.0,45,0.00,,CLR,0.00,VWS V13.01,2013-09-06 16:34:00,
2013-09-06 12:40:00,64.9,41.9,30.18,WSW,257,0.0,4.0,43,0.00,,CLR,0.00,VWS V13.01,2013-09-06 16:40:00,
2013-09-06 12:45:00,64.9,43.1,30.18,NNE,21,2.0,4.0,45,0.00,,CLR,0.00,VWS V13.01,2013-09-06 16:45:00,
2013-09-06 12:50:00,65.0,41.4,30.18,NNW,333,5.0,6.0,42,0.00,,CLR,0.00,VWS V13.01,2013-09-06 16:50:00,
2013-09-06 12:55:00,64.7,42.9,30.17,WSW,257,0.0,6.0,45,0.00,,CLR,0.00,VWS V13.01,2013-09-06 16:55:00,
2013-09-06 13:00:00,64.8,43.0,30.17,NE,42,0.0,6.0,45,0.00,,CLR,0.00,VWS V13.01,2013-09-06 17:00:00,
2013-09-06 13:05:00,64.8,41.8,30.17,NE,42,0.0,1.0,43,0.00,,CLR,0.00,VWS V13.01,2013-09-06 17:05:00,
2013-09-06 13:10:00,64.8,44.7,30.17,NW,315,1.0,1.0,48,0.00,,CLR,0.00,VWS V13.01,2013-09-06 17:10:00,
2013-09-06 13:15:00,64.9,42.5,30.17,WNW,291,0.0,3.0,44,0.00,,CLR,0.00,VWS V13.01,2013-09-06 17:15:00,
2013-09-06 13:20:00,65.2,43.3,30.17,North,355,2.0,5.0,45,0.00,,CLR,0.00,VWS V13.01,2013-09-06 17:20:00,
2013-09-06 13:25:00,65.4,42.3,30.17,NNW,338,0.0,5.0,43,0.00,,CLR,0.00,VWS V13.01,2013-09-06 17:25:00,
2013-09-06 13:31:00,65.8,43.9,30.17,NNW,332,0.0,6.0,45,0.00,,CLR,0.00,VWS V13.01,2013-09-06 17:31:00,
2013-09-06 13:36:00,66.4,45.0,30.17,WNW,294,0.0,2.0,46,0.00,,CLR,0.00,VWS V13.01,2013-09-06 17:36:00,
2013-09-06 13:41:00,66.9,43.7,30.17,NW,308,0.0,3.0,43,0.00,,CLR,0.00,VWS V13.01,2013-09-06 17:41:00,
2013-09-06 13:46:00,67.2,45.7,30.17,East,94,1.0,3.0,46,0.00,,CLR,0.00,VWS V13.01,2013-09-06 17:46:00,
2013-09-06 13:51:00,67.5,44.8,30.16,NNW,336,0.0,6.0,44,0.00,,CLR,0.00,VWS V13.01,2013-09-06 17:51:00,
2013-09-06 13:56:00,67.4,43.5,30.16,NW,308,1.0,6.0,42,0.00,,CLR,0.00,VWS V13.01,2013-09-06 17:56:00,
2013-09-06 14:01:00,67.6,43.1,30.16,SE,144,0.0,6.0,41,0.00,,CLR,0.00,VWS V13.01,2013-09-06 18:01:00,
2013-09-06 14:06:00,67.7,43.8,30.15,West,259,0.0,6.0,42,0.00,,CLR,0.00,VWS V13.01,2013-09-06 18:06:00,
2013-09-06 14:11:00,68.2,43.0,30.15,NW,315,0.0,6.0,40,0.00,,CLR,0.00,VWS V13.01,2013-09-06 18:11:00,
2013-09-06 14:16:00,68.4,43.8,30.15,SSW,208,0.0,6.0,41,0.00,,CLR,0.00,VWS V13.01,2013-09-06 18:16:00,
2013-09-06 14:22:00,68.4,44.4,30.15,WSW,241,0.0,6.0,42,0.00,,CLR,0.00,VWS V13.01,2013-09-06 18:22:00,
2013-09-06 14:27:00,68.5,43.9,30.15,NW,308,0.0,6.0,41,0.00,,CLR,0.00,VWS V13.01,2013-09-06 18:27:00,
2013-09-06 14:32:00,69.2,45.8,30.14,WNW,295,0.0,2.0,43,0.00,,CLR,0.00,VWS V13.01,2013-09-06 18:32:00,
2013-09-06 14:37:00,69.7,44.3,30.14,NW,309,3.0,7.0,40,0.00,,CLR,0.00,VWS V13.01,2013-09-06 18:37:00,
2013-09-06 14:42:00,69.9,44.5,30.14,WNW,300,0.0,7.0,40,0.00,,CLR,0.00,VWS V13.01,2013-09-06 18:42:00,
2013-09-06 14:47:00,69.9,44.5,30.14,NNW,346,3.0,7.0,40,0.00,,CLR,0.00,VWS V13.01,2013-09-06 18:47:00,
2013-09-06 14:52:00,70.1,42.7,30.13,NW,312,0.0,7.0,37,0.00,,CLR,0.00,VWS V13.01,2013-09-06 18:52:00,
2013-09-06 14:57:00,69.9,43.8,30.13,NW,307,0.0,7.0,39,0.00,,CLR,0.00,VWS V13.01,2013-09-06 18:57:00,
2013-09-06 15:02:00,69.7,41.6,30.13,NW,307,0.0,0.0,36,0.00,,CLR,0.00,VWS V13.01,2013-09-06 19:02:00,
2013-09-06 15:07:00,69.6,42.2,30.12,NNW,329,0.0,2.0,37,0.00,,CLR,0.00,VWS V13.01,2013-09-06 19:07:00,
2013-09-06 15:13:00,69.8,45.1,30.13,SSW,207,0.0,3.0,41,0.00,,CLR,0.00,VWS V13.01,2013-09-06 19:13:00,
2013-09-06 15:18:00,70.0,43.9,30.13,North,9,0.0,3.0,39,0.00,,CLR,0.00,VWS V13.01,2013-09-06 19:18:00,
2013-09-06 15:23:00,70.3,44.9,30.12,WSW,242,0.0,4.0,40,0.00,,CLR,0.00,VWS V13.01,2013-09-06 19:23:00,
2013-09-06 15:28:00,70.3,44.9,30.12,North,351,0.0,5.0,40,0.00,,CLR,0.00,VWS V13.01,2013-09-06 19:28:00,
2013-09-06 15:33:00,70.3,42.8,30.12,NNW,346,0.0,3.0,37,0.00,,CLR,0.00,VWS V13.01,2013-09-06 19:33:00,
2013-09-06 15:38:00,70.8,42.5,30.12,NW,318,0.0,3.0,36,0.00,,CLR,0.00,VWS V13.01,2013-09-06 19:38:00,
2013-09-06 15:43:00,71.2,46.3,30.11,SW,219,3.0,4.0,41,0.00,,CLR,0.00,VWS V13.01,2013-09-06 19:43:00,
2013-09-06 15:48:00,71.1,45.6,30.11,WNW,303,0.0,6.0,40,0.00,,CLR,0.00,VWS V13.01,2013-09-06 19:48:00,
2013-09-06 15:53:00,71.2,46.3,30.11,SW,216,1.0,10.0,41,0.00,,CLR,0.00,VWS V13.01,2013-09-06 19:53:00,
2013-09-06 15:58:00,71.4,47.1,30.11,SW,234,0.0,10.0,42,0.00,,CLR,0.00,VWS V13.01,2013-09-06 19:58:00,
2013-09-06 16:04:00,71.6,44.0,30.10,WNW,293,0.0,2.0,37,0.00,,CLR,0.00,VWS V13.01,2013-09-06 20:04:00,
2013-09-06 16:09:00,71.7,46.1,30.10,WNW,302,0.0,2.0,40,0.00,,CLR,0.00,VWS V13.01,2013-09-06 20:09:00,
2013-09-06 16:14:00,71.8,44.8,30.10,WSW,258,0.0,2.0,38,0.00,,CLR,0.00,VWS V13.01,2013-09-06 20:14:00,
2013-09-06 16:19:00,71.7,47.4,30.10,WSW,238,1.0,5.0,42,0.00,,CLR,0.00,VWS V13.01,2013-09-06 20:19:00,
2013-09-06 16:24:00,71.4,44.5,30.10,SSW,203,0.0,7.0,38,0.00,,CLR,0.00,VWS V13.01,2013-09-06 20:24:00,
2013-09-06 16:29:00,71.0,42.0,30.10,NNW,337,0.0,7.0,35,0.00,,CLR,0.00,VWS V13.01,2013-09-06 20:29:00,
2013-09-06 16:34:00,70.5,44.4,30.09,NNE,12,0.0,3.0,39,0.00,,CLR,0.00,VWS V13.01,2013-09-06 20:34:00,
2013-09-06 16:39:00,69.9,43.8,30.09,NNE,29,1.0,5.0,39,0.00,,CLR,0.00,VWS V13.01,2013-09-06 20:39:00,
2013-09-06 16:44:00,69.5,44.8,30.09,WNW,296,0.0,5.0,41,0.00,,CLR,0.00,VWS V13.01,2013-09-06 20:44:00,
2013-09-06 16:49:00,69.2,43.2,30.09,South,190,0.0,6.0,39,0.00,,CLR,0.00,VWS V13.01,2013-09-06 20:49:00,
2013-09-06 16:55:00,69.0,48.0,30.09,NNW,336,0.0,6.0,47,0.00,,CLR,0.00,VWS V13.01,2013-09-06 20:55:00,
2013-09-06 17:00:00,68.4,46.2,30.09,SW,215,3.0,6.0,45,0.00,,CLR,0.00,VWS V13.01,2013-09-06 21:00:00,
2013-09-06 17:05:00,68.2,47.8,30.09,SW,223,0.0,2.0,48,0.00,,CLR,0.00,VWS V13.01,2013-09-06 21:05:00,
2013-09-06 17:10:00,67.9,45.8,30.09,SSW,209,0.0,4.0,45,0.00,,CLR,0.00,VWS V13.01,2013-09-06 21:10:00,
2013-09-06 17:15:00,67.7,43.8,30.09,SSW,211,0.0,4.0,42,0.00,,CLR,0.00,VWS V13.01,2013-09-06 21:15:00,
2013-09-06 17:20:00,67.6,43.7,30.09,SSW,212,0.0,4.0,42,0.00,,CLR,0.00,VWS V13.01,2013-09-06 21:20:00,
2013-09-06 17:25:00,67.6,48.8,30.09,SSW,212,0.0,4.0,51,0.00,,CLR,0.00,VWS V13.01,2013-09-06 21:25:00,
2013-09-06 17:30:00,67.3,45.2,30.09,West,271,1.0,4.0,45,0.00,,CLR,0.00,VWS V13.01,2013-09-06 21:30:00,
2013-09-06 17:35:00,67.1,46.2,30.09,West,267,0.0,1.0,47,0.00,,CLR,0.00,VWS V13.01,2013-09-06 21:35:00,
2013-09-06 17:41:00,66.9,44.3,30.09,NW,324,0.0,2.0,44,0.00,,CLR,0.00,VWS V13.01,2013-09-06 21:41:00,
2013-09-06 17:46:00,66.8,48.6,30.09,NW,320,0.0,2.0,52,0.00,,CLR,0.00,VWS V13.01,2013-09-06 21:46:00,
2013-09-06 17:51:00,66.7,47.0,30.09,NNW,340,2.0,2.0,49,0.00,,CLR,0.00,VWS V13.01,2013-09-06 21:51:00,
2013-09-06 17:56:00,66.5,44.5,30.09,NNE,32,0.0,4.0,45,0.00,,CLR,0.00,VWS V13.01,2013-09-06 21:56:00,
2013-09-06 18:01:00,66.3,44.3,30.09,North,349,0.0,4.0,45,0.00,,CLR,0.00,VWS V13.01,2013-09-06 22:01:00,
2013-09-06 18:06:00,66.2,48.6,30.09,SSW,197,0.0,4.0,53,0.00,,CLR,0.00,VWS V13.01,2013-09-06 22:06:00,
2013-09-06 18:11:00,65.9,46.8,30.09,SSW,197,0.0,4.0,50,0.00,,CLR,0.00,VWS V13.01,2013-09-06 22:11:00,
2013-09-06 18:16:00,65.6,47.0,30.09,SSW,197,0.0,4.0,51,0.00,,CLR,0.00,VWS V13.01,2013-09-06 22:16:00,
2013-09-06 18:22:00,65.2,49.1,30.09,SSW,197,0.0,4.0,56,0.00,,CLR,0.00,VWS V13.01,2013-09-06 22:22:00,
2013-09-06 18:27:00,64.8,48.8,30.09,SSW,197,0.0,4.0,56,0.00,,CLR,0.00,VWS V13.01,2013-09-06 22:27:00,
2013-09-06 18:32:00,64.3,46.8,30.09,SW,225,2.0,2.0,53,0.00,,CLR,0.00,VWS V13.01,2013-09-06 22:32:00,
2013-09-06 18:37:00,63.9,48.8,30.09,SW,225,0.0,2.0,58,0.00,,CLR,0.00,VWS V13.01,2013-09-06 22:37:00,
2013-09-06 18:42:00,63.6,48.6,30.09,SW,225,1.0,2.0,58,0.00,,CLR,0.00,VWS V13.01,2013-09-06 22:42:00,
2013-09-06 18:47:00,63.2,46.8,30.09,SW,225,0.0,2.0,55,0.00,,CLR,0.00,VWS V13.01,2013-09-06 22:47:00,
2013-09-06 18:52:00,62.9,46.5,30.09,SW,225,0.0,2.0,55,0.00,,CLR,0.00,VWS V13.01,2013-09-06 22:52:00,
2013-09-06 18:57:00,62.7,47.7,30.09,SW,225,0.0,2.0,58,0.00,,CLR,0.00,VWS V13.01,2013-09-06 22:57:00,
2013-09-06 19:02:00,62.3,47.3,30.09,SW,225,0.0,0.0,58,0.00,,CLR,0.00,VWS V13.01,2013-09-06 23:02:00,
2013-09-06 19:08:00,61.9,47.0,30.09,SW,225,0.0,0.0,58,0.00,,CLR,0.00,VWS V13.01,2013-09-06 23:08:00,
2013-09-06 19:13:00,61.5,46.6,30.08,SW,225,0.0,0.0,58,0.00,,CLR,0.00,VWS V13.01,2013-09-06 23:13:00,
2013-09-06 19:18:00,61.2,47.2,30.08,SW,225,0.0,0.0,60,0.00,,CLR,0.00,VWS V13.01,2013-09-06 23:18:00,
2013-09-06 19:23:00,60.8,47.3,30.08,SW,225,0.0,0.0,61,0.00,,CLR,0.00,VWS V13.01,2013-09-06 23:23:00,
2013-09-06 19:28:00,60.4,47.3,30.08,SW,225,0.0,0.0,62,0.00,,CLR,0.00,VWS V13.01,2013-09-06 23:28:00,
2013-09-06 19:33:00,59.9,46.4,30.08,SW,225,0.0,0.0,61,0.00,,CLR,0.00,VWS V13.01,2013-09-06 23:33:00,
2013-09-06 19:38:00,59.6,46.2,30.08,SW,225,0.0,0.0,61,0.00,,CLR,0.00,VWS V13.01,2013-09-06 23:38:00,
2013-09-06 19:43:00,59.2,47.0,30.08,SW,225,0.0,0.0,64,0.00,,CLR,0.00,VWS V13.01,2013-09-06 23:43:00,
2013-09-06 19:48:00,58.9,47.2,30.08,SW,225,0.0,0.0,65,0.00,,CLR,0.00,VWS V13.01,2013-09-06 23:48:00,
2013-09-06 19:53:00,58.5,46.8,30.08,SW,225,0.0,0.0,65,0.00,,CLR,0.00,VWS V13.01,2013-09-06 23:53:00,
2013-09-06 19:59:00,58.2,46.5,30.09,SW,225,0.0,0.0,65,0.00,,CLR,0.00,VWS V13.01,2013-09-06 23:59:00,
2013-09-06 20:04:00,57.9,46.2,30.09,SW,225,0.0,0.0,65,0.00,,CLR,0.00,VWS V13.01,2013-09-07 00:04:00,
2013-09-06 20:09:00,57.5,46.2,30.09,SW,225,0.0,0.0,66,0.00,,CLR,0.00,VWS V13.01,2013-09-07 00:09:00,
2013-09-06 20:14:00,57.2,46.4,30.09,SW,225,0.0,0.0,67,0.00,,CLR,0.00,VWS V13.01,2013-09-07 00:14:00,
2013-09-06 20:19:00,56.9,46.1,30.09,SW,225,0.0,0.0,67,0.00,,CLR,0.00,VWS V13.01,2013-09-07 00:19:00,
2013-09-06 20:24:00,56.7,46.7,30.09,SW,225,0.0,0.0,69,0.00,,CLR,0.00,VWS V13.01,2013-09-07 00:24:00,
2013-09-06 20:29:00,56.5,46.8,30.09,SW,225,0.0,0.0,70,0.00,,CLR,0.00,VWS V13.01,2013-09-07 00:29:00,
2013-09-06 20:34:00,56.2,46.9,30.09,SW,225,0.0,0.0,71,0.00,,CLR,0.00,VWS V13.01,2013-09-07 00:34:00,
2013-09-06 20:39:00,55.9,46.7,30.09,SW,225,0.0,0.0,71,0.00,,CLR,0.00,VWS V13.01,2013-09-07 00:39:00,
2013-09-06 20:45:00,55.6,46.4,30.09,SW,225,0.0,0.0,71,0.00,,CLR,0.00,VWS V13.01,2013-09-07 00:45:00,
2013-09-06 20:50:00,55.3,46.1,30.09,SW,225,0.0,0.0,71,0.00,,CLR,0.00,VWS V13.01,2013-09-07 00:50:00,
2013-09-06 20:55:00,55.1,46.6,30.09,SW,225,0.0,0.0,73,0.00,,CLR,0.00,VWS V13.01,2013-09-07 00:55:00,
2013-09-06 21:00:00,54.9,46.4,30.09,SW,225,0.0,0.0,73,0.00,,CLR,0.00,VWS V13.01,2013-09-07 01:00:00,
2013-09-06 21:05:00,54.7,46.6,30.09,SW,225,0.0,0.0,74,0.00,,CLR,0.00,VWS V13.01,2013-09-07 01:05:00,
2013-09-06 21:10:00,54.5,46.4,30.09,SW,225,0.0,0.0,74,0.00,,CLR,0.00,VWS V13.01,2013-09-07 01:10:00,
2013-09-06 21:15:00,54.4,46.7,30.09,SW,225,0.0,0.0,75,0.00,,CLR,0.00,VWS V13.01,2013-09-07 01:15:00,
2013-09-06 21:20:00,54.2,46.8,30.08,SW,225,0.0,0.0,76,0.00,,CLR,0.00,VWS V13.01,2013-09-07 01:20:00,
2013-09-06 21:26:00,54.1,47.1,30.09,SW,225,0.0,0.0,77,0.00,,CLR,0.00,VWS V13.01,2013-09-07 01:26:00,
2013-09-06 21:31:00,53.9,46.9,30.09,SW,225,0.0,0.0,77,0.00,,CLR,0.00,VWS V13.01,2013-09-07 01:31:00,
2013-09-06 21:36:00,53.7,46.7,30.09,SW,225,0.0,0.0,77,0.00,,CLR,0.00,VWS V13.01,2013-09-07 01:36:00,
2013-09-06 21:41:00,53.5,46.5,30.08,SW,225,0.0,0.0,77,0.00,,CLR,0.00,VWS V13.01,2013-09-07 01:41:00,
2013-09-06 21:46:00,53.4,47.1,30.08,SW,225,0.0,0.0,79,0.00,,CLR,0.00,VWS V13.01,2013-09-07 01:46:00,
2013-09-06 21:51:00,53.3,47.6,30.08,SW,225,0.0,0.0,81,0.00,,CLR,0.00,VWS V13.01,2013-09-07 01:51:00,
2013-09-06 21:56:00,53.0,46.7,30.08,SW,225,0.0,0.0,79,0.00,,CLR,0.00,VWS V13.01,2013-09-07 01:56:00,
2013-09-06 22:01:00,52.8,46.8,30.08,SW,225,0.0,0.0,80,0.00,,CLR,0.00,VWS V13.01,2013-09-07 02:01:00,
2013-09-06 22:06:00,52.6,46.9,30.08,SW,225,0.0,0.0,81,0.00,,CLR,0.00,VWS V13.01,2013-09-07 02:06:00,
2013-09-06 22:11:00,52.5,47.2,30.08,SW,225,0.0,0.0,82,0.00,,CLR,0.00,VWS V13.01,2013-09-07 02:11:00,
2013-09-06 22:16:00,52.3,47.0,30.08,SW,225,0.0,0.0,82,0.00,,CLR,0.00,VWS V13.01,2013-09-07 02:16:00,
2013-09-06 22:21:00,52.2,46.9,30.08,SW,225,0.0,0.0,82,0.00,,CLR,0.00,VWS V13.01,2013-09-07 02:21:00,
2013-09-06 22:27:00,52.1,47.1,30.08,SW,225,0.0,0.0,83,0.00,,CLR,0.00,VWS V13.01,2013-09-07 02:27:00,
2013-09-06 22:32:00,52.0,47.0,30.08,SW,225,0.0,0.0,83,0.00,,CLR,0.00,VWS V13.01,2013-09-07 02:32:00,
2013-09-06 22:37:00,51.9,46.9,30.08,SW,225,0.0,0.0,83,0.00,,CLR,0.00,VWS V13.01,2013-09-07 02:37:00,
2013-09-06 22:42:00,51.8,46.8,30.07,SW,225,0.0,0.0,83,0.00,,CLR,0.00,VWS V13.01,2013-09-07 02:42:00,
2013-09-06 22:47:00,51.8,47.1,30.08,SW,225,0.0,1.0,84,0.00,,CLR,0.00,VWS V13.01,2013-09-07 02:47:00,
2013-09-06 22:52:00,51.7,47.0,30.08,SW,225,0.0,1.0,84,0.00,,CLR,0.00,VWS V13.01,2013-09-07 02:52:00,
2013-09-06 22:57:00,51.6,47.6,30.07,SW,225,0.0,1.0,86,0.00,,CLR,0.00,VWS V13.01,2013-09-07 02:57:00,
2013-09-06 23:02:00,51.5,47.5,30.07,SW,225,0.0,0.0,86,0.00,,CLR,0.00,VWS V13.01,2013-09-07 03:02:00,
2013-09-06 23:08:00,51.3,47.0,30.07,SW,225,0.0,1.0,85,0.00,,CLR,0.00,VWS V13.01,2013-09-07 03:08:00,
2013-09-06 23:13:00,51.2,46.8,30.07,SW,225,0.0,1.0,85,0.00,,CLR,0.00,VWS V13.01,2013-09-07 03:13:00,
2013-09-06 23:18:00,51.2,46.8,30.06,SW,225,0.0,1.0,85,0.00,,CLR,0.00,VWS V13.01,2013-09-07 03:18:00,
2013-09-06 23:23:00,51.1,46.8,30.06,SW,225,0.0,1.0,85,0.00,,CLR,0.00,VWS V13.01,2013-09-07 03:23:00,
2013-09-06 23:28:00,51.1,47.4,30.06,SW,225,0.0,1.0,87,0.00,,CLR,0.00,VWS V13.01,2013-09-07 03:28:00,
2013-09-06 23:33:00,51.0,46.7,30.06,SW,225,0.0,0.0,85,0.00,,CLR,0.00,VWS V13.01,2013-09-07 03:33:00,
2013-09-06 23:38:00,50.9,46.9,30.06,SW,225,0.0,0.0,86,0.00,,CLR,0.00,VWS V13.01,2013-09-07 03:38:00,
2013-09-06 23:43:00,50.9,46.9,30.06,SW,225,0.0,0.0,86,0.00,,CLR,0.00,VWS V13.01,2013-09-07 03:43:00,
2013-09-06 23:49:00,50.9,46.9,30.06,SW,225,0.0,0.0,86,0.00,,CLR,0.00,VWS V13.01,2013-09-07 03:49:00,
2013-09-06 23:54:00,50.8,46.8,30.06,SW,225,0.0,0.0,86,0.00,,CLR,0.00,VWS V13.01,2013-09-07 03:54:00,
2013-09-06 23:59:00,50.7,46.7,30.06,SW,225,0.0,0.0,86,0.00,,CLR,0.00,VWS V13.01,2013-09-07 03:59:00,